| time (UTC) | temp F | wind direction | speed MPH | gust MPH | rain 1hr in | rain 24hr in | rain mn in | humidity % | barometer mb |
| 20260507210345 | 89 | 150 | 3.0 | 6.0 | 0.00 | 0.00 | 0.00 | 63 | 1016.9 |
| 20260507205841 | 89 | 37 | 3.0 | 5.0 | 0.00 | 0.00 | 0.00 | 62 | 1017.0 |
| 20260507205338 | 89 | 62 | 3.0 | 6.0 | 0.00 | 0.00 | 0.00 | 62 | 1016.7 |
| 20260507204834 | 89 | 143 | 0.0 | 2.0 | 0.00 | 0.00 | 0.00 | 62 | 1016.7 |
| 20260507204331 | 89 | 87 | 4.0 | 7.0 | 0.00 | 0.00 | 0.00 | 62 | 1016.7 |
| 20260507203829 | 90 | 150 | 2.0 | 5.0 | 0.00 | 0.00 | 0.00 | 62 | 1016.7 |
| 20260507203327 | 91 | 174 | 3.0 | 6.0 | 0.00 | 0.00 | 0.00 | 62 | 1016.8 |
| 20260507202823 | 90 | 88 | 3.0 | 8.0 | 0.00 | 0.00 | 0.00 | 62 | 1016.9 |
| 20260507202319 | 90 | 185 | 3.0 | 7.0 | 0.00 | 0.00 | 0.00 | 61 | 1016.9 |
| 20260507201815 | 90 | 120 | 1.0 | 3.0 | 0.00 | 0.00 | 0.00 | 61 | 1016.8 |
| 20260507201311 | 90 | 158 | 1.0 | 2.0 | 0.00 | 0.00 | 0.00 | 60 | 1016.9 |
| 20260507200808 | 91 | 162 | 2.0 | 6.0 | 0.00 | 0.00 | 0.00 | 61 | 1016.9 |
| 20260507200303 | 91 | 11 | 1.0 | 3.0 | 0.00 | 0.00 | 0.00 | 61 | 1017.1 |
| 20260507195759 | 91 | 84 | 3.0 | 6.0 | 0.00 | 0.00 | 0.00 | 59 | 1017.2 |
| 20260507195257 | 91 | 84 | 3.0 | 6.0 | 0.00 | 0.00 | 0.00 | 59 | 1017.1 |
| 20260507194754 | 91 | 162 | 3.0 | 5.0 | 0.00 | 0.00 | 0.00 | 61 | 1017.2 |
| 20260507194250 | 91 | 162 | 3.0 | 5.0 | 0.00 | 0.00 | 0.00 | 61 | 1017.2 |
| 20260507193747 | 91 | 149 | 3.0 | 6.0 | 0.00 | 0.00 | 0.00 | 61 | 1017.2 |
| 20260507193244 | 92 | 137 | 1.0 | 2.0 | 0.00 | 0.00 | 0.00 | 60 | 1017.2 |
| 20260507192740 | 92 | 163 | 3.0 | 8.0 | 0.00 | 0.00 | 0.00 | 62 | 1017.4 |
| 20260507192236 | 93 | 102 | 1.0 | 2.0 | 0.00 | 0.00 | 0.00 | 59 | 1017.2 |
| 20260507191733 | 93 | 102 | 1.0 | 2.0 | 0.00 | 0.00 | 0.00 | 59 | 1017.4 |
| 20260507191230 | 93 | 102 | 1.0 | 2.0 | 0.00 | 0.00 | 0.00 | 59 | 1017.6 |
| 20260507190726 | 93 | 102 | 1.0 | 2.0 | 0.00 | 0.00 | 0.00 | 59 | 1017.6 |
| 20260507190225 | 93 | 102 | 1.0 | 2.0 | 0.00 | 0.00 | 0.00 | 59 | 1017.8 |
| 20260507185723 | 93 | 161 | 2.0 | 3.0 | 0.00 | 0.00 | 0.00 | 58 | 1017.8 |
| 20260507185220 | 94 | 160 | 1.0 | 1.0 | 0.00 | 0.00 | 0.00 | 57 | 1018.0 |
| 20260507184718 | 92 | 217 | 2.0 | 5.0 | 0.00 | 0.00 | 0.00 | 59 | 1018.1 |
| 20260507184215 | 92 | 80 | 2.0 | 5.0 | 0.00 | 0.00 | 0.00 | 60 | 1018.0 |
| 20260507183711 | 95 | 155 | 0.0 | 0.0 | 0.00 | 0.00 | 0.00 | 53 | 1018.2 |
| 20260507183208 | 93 | 151 | 2.0 | 3.0 | 0.00 | 0.00 | 0.00 | 55 | 1018.3 |
| 20260507182706 | 95 | 91 | 1.0 | 2.0 | 0.00 | 0.00 | 0.00 | 53 | 1018.3 |
| 20260507182201 | 95 | 153 | 0.0 | 1.0 | 0.00 | 0.00 | 0.00 | 46 | 1018.6 |
| 20260507181658 | 94 | 293 | 0.0 | 0.0 | 0.00 | 0.00 | 0.00 | 46 | 1018.5 |
| 20260507181154 | 95 | 237 | 2.0 | 2.0 | 0.00 | 0.00 | 0.00 | 47 | 1018.5 |
| 20260507180650 | 94 | 127 | 0.0 | 0.0 | 0.00 | 0.00 | 0.00 | 48 | 1018.4 |
| 20260507180148 | 92 | 145 | 0.0 | 0.0 | 0.00 | 0.00 | 0.00 | 51 | 1018.5 |
| 20260507175643 | 92 | 145 | 0.0 | 0.0 | 0.00 | 0.00 | 0.00 | 51 | 1018.5 |
| 20260507175141 | 92 | 145 | 0.0 | 0.0 | 0.00 | 0.00 | 0.00 | 51 | 1018.5 |
| 20260507174638 | 92 | 170 | 2.0 | 2.0 | 0.00 | 0.00 | 0.00 | 50 | 1018.5 |
| 20260507174136 | 92 | 170 | 2.0 | 2.0 | 0.00 | 0.00 | 0.00 | 50 | 1018.5 |
| 20260507173633 | 92 | 170 | 2.0 | 2.0 | 0.00 | 0.00 | 0.00 | 50 | 1018.7 |
| 20260507173130 | 92 | 170 | 2.0 | 2.0 | 0.00 | 0.00 | 0.00 | 50 | 1018.8 |
| 20260507172626 | 92 | 170 | 2.0 | 2.0 | 0.00 | 0.00 | 0.00 | 50 | 1018.7 |
| 20260507172124 | 92 | 170 | 2.0 | 5.0 | 0.00 | 0.00 | 0.00 | 50 | 1018.9 |
| 20260507171618 | 92 | 166 | 1.0 | 1.0 | 0.00 | 0.00 | 0.00 | 51 | 1018.8 |
| 20260507171116 | 92 | 170 | 1.0 | 1.0 | 0.00 | 0.00 | 0.00 | 53 | 1019.0 |
| 20260507170613 | 91 | 187 | 1.0 | 2.0 | 0.00 | 0.00 | 0.00 | 52 | 1019.1 |
| 20260507170110 | 92 | 169 | 0.0 | 3.0 | 0.00 | 0.00 | 0.00 | 52 | 1019.3 |
| 20260507165605 | 91 | 241 | 0.0 | 0.0 | 0.00 | 0.00 | 0.00 | 51 | 1019.3 |
| 20260507165102 | 91 | 165 | 0.0 | 0.0 | 0.00 | 0.00 | 0.00 | 52 | 1019.2 |
| 20260507164558 | 91 | 170 | 0.0 | 0.0 | 0.00 | 0.00 | 0.00 | 52 | 1019.3 |
| 20260507164055 | 92 | 129 | 0.0 | 0.0 | 0.00 | 0.00 | 0.00 | 51 | 1019.5 |
| 20260507163552 | 91 | 110 | 0.0 | 2.0 | 0.00 | 0.00 | 0.00 | 52 | 1019.5 |
| 20260507163045 | 91 | 160 | 0.0 | 1.0 | 0.00 | 0.00 | 0.00 | 51 | 1019.7 |
| 20260507162544 | 90 | 150 | 0.0 | 0.0 | 0.00 | 0.00 | 0.00 | 52 | 1019.6 |
| 20260507162042 | 90 | 158 | 0.0 | 0.0 | 0.00 | 0.00 | 0.00 | 53 | 1019.7 |
| 20260507161539 | 91 | 201 | 1.0 | 2.0 | 0.00 | 0.00 | 0.00 | 53 | 1019.9 |
| 20260507161035 | 90 | 143 | 0.0 | 0.0 | 0.00 | 0.00 | 0.00 | 52 | 1019.8 |
| 20260507160531 | 89 | 210 | 2.0 | 5.0 | 0.00 | 0.00 | 0.00 | 55 | 1019.8 |
| 20260507160027 | 90 | 177 | 0.0 | 0.0 | 0.00 | 0.00 | 0.00 | 54 | 1019.9 |
| 20260507155522 | 89 | 152 | 2.0 | 5.0 | 0.00 | 0.00 | 0.00 | 55 | 1020.2 |
| 20260507155020 | 90 | 184 | 0.0 | 2.0 | 0.00 | 0.00 | 0.00 | 56 | 1020.0 |
| 20260507154517 | 90 | 136 | 0.0 | 0.0 | 0.00 | 0.00 | 0.00 | 55 | 1019.9 |
| 20260507154014 | 89 | 169 | 0.0 | 1.0 | 0.00 | 0.00 | 0.00 | 56 | 1020.0 |
| 20260507153511 | 89 | 159 | 0.0 | 0.0 | 0.00 | 0.00 | 0.00 | 56 | 1020.1 |
| 20260507153007 | 89 | 232 | 0.0 | 0.0 | 0.00 | 0.00 | 0.00 | 56 | 1020.2 |
| 20260507152502 | 88 | 127 | 2.0 | 6.0 | 0.00 | 0.00 | 0.00 | 58 | 1020.2 |
| 20260507151959 | 88 | 172 | 0.0 | 0.0 | 0.00 | 0.00 | 0.00 | 57 | 1020.2 |
| 20260507151455 | 87 | 131 | 0.0 | 0.0 | 0.00 | 0.00 | 0.00 | 58 | 1020.2 |
| 20260507150953 | 87 | 158 | 0.0 | 2.0 | 0.00 | 0.00 | 0.00 | 57 | 1020.3 |
| 20260507150449 | 87 | 182 | 0.0 | 1.0 | 0.00 | 0.00 | 0.00 | 59 | 1020.2 |
| 20260507145945 | 87 | 163 | 2.0 | 2.0 | 0.00 | 0.00 | 0.00 | 59 | 1020.4 |
| 20260507145441 | 86 | 232 | 2.0 | 3.0 | 0.00 | 0.00 | 0.00 | 57 | 1020.3 |
| 20260507144938 | 87 | 260 | 4.0 | 5.0 | 0.00 | 0.00 | 0.00 | 58 | 1020.1 |
| 20260507144435 | 87 | 145 | 1.0 | 3.0 | 0.00 | 0.00 | 0.00 | 61 | 1020.3 |
| 20260507143932 | 87 | 236 | 3.0 | 3.0 | 0.00 | 0.00 | 0.00 | 61 | 1020.2 |
| 20260507143430 | 87 | 236 | 3.0 | 3.0 | 0.00 | 0.00 | 0.00 | 61 | 1020.2 |
| 20260507142926 | 85 | 160 | 0.0 | 0.0 | 0.00 | 0.00 | 0.00 | 65 | 1020.4 |
| 20260507142422 | 85 | 160 | 0.0 | 0.0 | 0.00 | 0.00 | 0.00 | 65 | 1020.4 |
| 20260507141920 | 86 | 227 | 3.0 | 3.0 | 0.00 | 0.00 | 0.00 | 64 | 1020.5 |
| 20260507141415 | 86 | 122 | 0.0 | 3.0 | 0.00 | 0.00 | 0.00 | 66 | 1020.5 |
| 20260507140912 | 84 | 170 | 1.0 | 2.0 | 0.00 | 0.00 | 0.00 | 68 | 1020.4 |
| 20260507140409 | 84 | 172 | 1.0 | 2.0 | 0.00 | 0.00 | 0.00 | 69 | 1020.4 |
| 20260507135907 | 84 | 118 | 0.0 | 0.0 | 0.00 | 0.00 | 0.00 | 68 | 1020.4 |
| 20260507135403 | 83 | 160 | 1.0 | 2.0 | 0.00 | 0.00 | 0.00 | 69 | 1020.3 |
| 20260507134901 | 84 | 241 | 3.0 | 5.0 | 0.00 | 0.00 | 0.00 | 69 | 1020.4 |
| 20260507134357 | 83 | 253 | 1.0 | 2.0 | 0.00 | 0.00 | 0.00 | 70 | 1020.4 |
| 20260507133853 | 83 | 244 | 0.0 | 3.0 | 0.00 | 0.00 | 0.00 | 70 | 1020.3 |
| 20260507133349 | 83 | 153 | 0.0 | 0.0 | 0.00 | 0.00 | 0.00 | 70 | 1020.4 |
| 20260507132848 | 82 | 228 | 1.0 | 1.0 | 0.00 | 0.00 | 0.00 | 70 | 1020.6 |
| 20260507132343 | 82 | 228 | 1.0 | 1.0 | 0.00 | 0.00 | 0.00 | 70 | 1020.2 |
| 20260507131841 | 82 | 228 | 1.0 | 1.0 | 0.00 | 0.00 | 0.00 | 70 | 1020.3 |
| 20260507131337 | 82 | 161 | 0.0 | 0.0 | 0.00 | 0.00 | 0.00 | 71 | 1020.3 |
| 20260507130834 | 81 | 151 | 1.0 | 1.0 | 0.00 | 0.00 | 0.00 | 72 | 1020.4 |
| 20260507130331 | 81 | 146 | 3.0 | 3.0 | 0.00 | 0.00 | 0.00 | 72 | 1020.4 |
| 20260507125831 | 80 | 223 | 3.0 | 5.0 | 0.00 | 0.00 | 0.00 | 73 | 1020.2 |
| 20260507125327 | 80 | 172 | 0.0 | 0.0 | 0.00 | 0.00 | 0.00 | 75 | 1020.5 |
| 20260507124825 | 80 | 171 | 1.0 | 1.0 | 0.00 | 0.00 | 0.00 | 75 | 1020.3 |
| 20260507124321 | 79 | 171 | 1.0 | 2.0 | 0.00 | 0.00 | 0.00 | 76 | 1020.4 |
| 20260507123819 | 79 | 170 | 1.0 | 1.0 | 0.00 | 0.00 | 0.00 | 77 | 1020.4 |
| 20260507123316 | 78 | 171 | 0.0 | 2.0 | 0.00 | 0.00 | 0.00 | 77 | 1020.6 |
| 20260507122812 | 78 | 171 | 0.0 | 0.0 | 0.00 | 0.00 | 0.00 | 78 | 1020.4 |
| 20260507122308 | 78 | 172 | 0.0 | 0.0 | 0.00 | 0.00 | 0.00 | 78 | 1020.4 |
| 20260507121804 | 77 | 171 | 0.0 | 0.0 | 0.00 | 0.00 | 0.00 | 79 | 1020.5 |
| 20260507121300 | 76 | 171 | 0.0 | 0.0 | 0.00 | 0.00 | 0.00 | 80 | 1020.4 |
| 20260507120756 | 75 | 156 | 0.0 | 0.0 | 0.00 | 0.00 | 0.00 | 82 | 1020.3 |
| 20260507120253 | 75 | 154 | 0.0 | 0.0 | 0.00 | 0.00 | 0.00 | 82 | 1020.2 |
| 20260507115749 | 74 | 153 | 0.0 | 0.0 | 0.00 | 0.00 | 0.00 | 83 | 1020.1 |
| 20260507115245 | 74 | 151 | 0.0 | 0.0 | 0.00 | 0.00 | 0.00 | 85 | 1020.3 |
| 20260507114741 | 72 | 150 | 0.0 | 0.0 | 0.00 | 0.00 | 0.00 | 89 | 1020.3 |
| 20260507114238 | 72 | 150 | 0.0 | 0.0 | 0.00 | 0.00 | 0.00 | 89 | 1020.2 |
| 20260507113736 | 71 | 154 | 0.0 | 0.0 | 0.00 | 0.00 | 0.00 | 89 | 1020.1 |
| 20260507113232 | 70 | 155 | 0.0 | 0.0 | 0.00 | 0.00 | 0.00 | 90 | 1020.2 |
| 20260507112731 | 70 | 161 | 0.0 | 0.0 | 0.00 | 0.00 | 0.00 | 90 | 1020.0 |
| 20260507112227 | 69 | 172 | 0.0 | 0.0 | 0.00 | 0.00 | 0.00 | 90 | 1020.0 |
| 20260507111725 | 68 | 155 | 0.0 | 0.0 | 0.00 | 0.00 | 0.00 | 90 | 1019.7 |
| 20260507111221 | 68 | 155 | 0.0 | 0.0 | 0.00 | 0.00 | 0.00 | 90 | 1019.6 |
| 20260507110717 | 68 | 155 | 0.0 | 0.0 | 0.00 | 0.00 | 0.00 | 90 | 1019.6 |
| 20260507110214 | 68 | 155 | 0.0 | 0.0 | 0.00 | 0.00 | 0.00 | 90 | 1019.6 |
| 20260507105711 | 68 | 155 | 0.0 | 0.0 | 0.00 | 0.00 | 0.00 | 90 | 1019.6 |
| 20260507105207 | 68 | 155 | 0.0 | 0.0 | 0.00 | 0.00 | 0.00 | 90 | 1019.1 |
| 20260507104704 | 68 | 160 | 0.0 | 0.0 | 0.00 | 0.00 | 0.00 | 90 | 1019.1 |
| 20260507104201 | 68 | 158 | 0.0 | 0.0 | 0.00 | 0.00 | 0.00 | 90 | 1019.2 |
| 20260507103656 | 68 | 156 | 0.0 | 0.0 | 0.00 | 0.00 | 0.00 | 90 | 1018.9 |
| 20260507103153 | 68 | 159 | 0.0 | 0.0 | 0.00 | 0.00 | 0.00 | 90 | 1018.9 |
| 20260507102650 | 68 | 159 | 0.0 | 0.0 | 0.00 | 0.00 | 0.00 | 90 | 1019.0 |
| 20260507102146 | 68 | 159 | 0.0 | 0.0 | 0.00 | 0.00 | 0.00 | 90 | 1018.7 |
| 20260507101642 | 68 | 157 | 0.0 | 0.0 | 0.00 | 0.00 | 0.00 | 90 | 1019.0 |
| 20260507101138 | 68 | 157 | 0.0 | 0.0 | 0.00 | 0.00 | 0.00 | 90 | 1018.6 |
| 20260507100635 | 68 | 157 | 0.0 | 0.0 | 0.00 | 0.00 | 0.00 | 90 | 1018.6 |
| 20260507100134 | 68 | 155 | 0.0 | 0.0 | 0.00 | 0.00 | 0.00 | 90 | 1018.5 |
| 20260507095631 | 68 | 155 | 0.0 | 0.0 | 0.00 | 0.00 | 0.00 | 90 | 1018.4 |
| 20260507095127 | 68 | 155 | 0.0 | 0.0 | 0.00 | 0.00 | 0.00 | 90 | 1018.4 |
| 20260507094624 | 68 | 155 | 0.0 | 0.0 | 0.00 | 0.00 | 0.00 | 90 | 1018.3 |
| 20260507094121 | 68 | 152 | 0.0 | 0.0 | 0.00 | 0.00 | 0.00 | 89 | 1018.1 |
| 20260507093618 | 68 | 152 | 0.0 | 0.0 | 0.00 | 0.00 | 0.00 | 89 | 1018.2 |
| 20260507093117 | 68 | 152 | 0.0 | 0.0 | 0.00 | 0.00 | 0.00 | 89 | 1018.2 |
| 20260507092613 | 68 | 152 | 0.0 | 0.0 | 0.00 | 0.00 | 0.00 | 89 | 1018.2 |
| 20260507092109 | 68 | 152 | 0.0 | 0.0 | 0.00 | 0.00 | 0.00 | 89 | 1018.2 |
| 20260507091606 | 68 | 149 | 0.0 | 0.0 | 0.00 | 0.00 | 0.00 | 89 | 1018.3 |
| 20260507091102 | 68 | 156 | 0.0 | 0.0 | 0.00 | 0.00 | 0.00 | 89 | 1018.4 |
| 20260507090558 | 68 | 156 | 0.0 | 0.0 | 0.00 | 0.00 | 0.00 | 89 | 1018.4 |
| 20260507090055 | 68 | 157 | 0.0 | 0.0 | 0.00 | 0.00 | 0.00 | 89 | 1018.4 |
| 20260507085552 | 0 | 0.0 | 0.0 | 0.00 | 0.00 | 0.00 | 1018.3 | ||
| 20260507085049 | 0 | 0.0 | 0.0 | 0.00 | 0.00 | 0.00 | 1018.3 | ||
| 20260507084546 | 0 | 0.0 | 0.0 | 0.00 | 0.00 | 0.00 | 1018.4 | ||
| 20260507084043 | 0 | 0.0 | 0.0 | 0.00 | 0.00 | 0.00 | 1018.2 | ||
| 20260507083539 | 0 | 0.0 | 0.0 | 0.00 | 0.00 | 0.00 | 1018.3 | ||
| 20260507083036 | 0 | 0.0 | 0.0 | 0.00 | 0.00 | 0.00 | 1018.3 | ||
| 20260507082532 | 0 | 0.0 | 0.0 | 0.00 | 0.00 | 0.00 | 1018.2 | ||
| 20260507082029 | 0 | 0.0 | 0.0 | 0.00 | 0.00 | 0.00 | 1018.2 | ||
| 20260507081525 | 0 | 0.0 | 0.0 | 0.00 | 0.00 | 0.00 | 1018.2 | ||
| 20260507081022 | 0 | 0.0 | 0.0 | 0.00 | 0.00 | 0.00 | 1018.2 | ||
| 20260507080518 | 0 | 0.0 | 0.0 | 0.00 | 0.00 | 0.00 | 1018.3 | ||
| 20260507080015 | 0 | 0.0 | 0.0 | 0.00 | 0.00 | 0.00 | 1018.4 | ||
| 20260507075510 | 0 | 0.0 | 0.0 | 0.00 | 0.00 | 0.00 | 1018.1 | ||
| 20260507075007 | 0 | 0.0 | 0.0 | 0.00 | 0.00 | 0.00 | 1018.3 | ||
| 20260507074503 | 0 | 0.0 | 0.0 | 0.00 | 0.00 | 0.00 | 1018.4 | ||
| 20260507074002 | 70 | 153 | 0.0 | 0.0 | 0.00 | 0.00 | 0.00 | 85 | 1018.2 |
| 20260507073457 | 70 | 153 | 0.0 | 0.0 | 0.00 | 0.00 | 0.00 | 85 | 1018.2 |
| 20260507072954 | 70 | 153 | 0.0 | 0.0 | 0.00 | 0.00 | 0.00 | 85 | 1018.4 |
| 20260507072452 | 70 | 153 | 0.0 | 0.0 | 0.00 | 0.00 | 0.00 | 85 | 1018.4 |
| 20260507071949 | 70 | 153 | 0.0 | 0.0 | 0.00 | 0.00 | 0.00 | 85 | 1018.4 |
| 20260507071446 | 70 | 153 | 0.0 | 0.0 | 0.00 | 0.00 | 0.00 | 85 | 1018.4 |
| 20260507070942 | 70 | 153 | 0.0 | 0.0 | 0.00 | 0.00 | 0.00 | 85 | 1018.5 |
| 20260507070440 | 70 | 153 | 0.0 | 0.0 | 0.00 | 0.00 | 0.00 | 85 | 1018.4 |
| 20260507065936 | 70 | 153 | 0.0 | 0.0 | 0.00 | 0.00 | 0.00 | 85 | 1018.5 |
| 20260507065433 | 70 | 153 | 0.0 | 0.0 | 0.00 | 0.00 | 0.00 | 85 | 1018.9 |
| 20260507064931 | 70 | 153 | 0.0 | 0.0 | 0.00 | 0.00 | 0.00 | 85 | 1018.9 |
| 20260507064429 | 70 | 153 | 0.0 | 0.0 | 0.00 | 0.00 | 0.00 | 85 | 1019.0 |
| 20260507063926 | 70 | 152 | 0.0 | 0.0 | 0.00 | 0.00 | 0.00 | 85 | 1018.9 |
| 20260507063423 | 0 | 0.0 | 0.0 | 0.00 | 0.00 | 0.00 | 1018.9 | ||
| 20260507062920 | 0 | 0.0 | 0.0 | 0.00 | 0.00 | 0.00 | 1019.1 | ||
| 20260507062417 | 0 | 0.0 | 0.0 | 0.00 | 0.00 | 0.00 | 1019.5 | ||
| 20260507061914 | 0 | 0.0 | 0.0 | 0.00 | 0.00 | 0.00 | 1019.4 | ||
| 20260507061412 | 0 | 0.0 | 0.0 | 0.00 | 0.00 | 0.00 | 1019.3 | ||
| 20260507060911 | 0 | 0.0 | 0.0 | 0.00 | 0.00 | 0.00 | 1019.3 | ||
| 20260507060407 | 0 | 0.0 | 0.0 | 0.00 | 0.00 | 0.00 | 1019.5 | ||
| 20260507055904 | 0 | 0.0 | 0.0 | 0.00 | 0.00 | 0.00 | 1019.4 | ||
| 20260507055359 | 0 | 0.0 | 0.0 | 0.00 | 0.00 | 0.00 | 1019.2 | ||
| 20260507054856 | 0 | 0.0 | 0.0 | 0.00 | 0.00 | 0.00 | 1019.5 | ||
| 20260507054352 | 0 | 0.0 | 0.0 | 0.00 | 0.00 | 0.00 | 1019.4 | ||
| 20260507053849 | 0 | 0.0 | 0.0 | 0.00 | 0.00 | 0.00 | 1019.6 | ||
| 20260507053347 | 0 | 0.0 | 0.0 | 0.00 | 0.00 | 0.00 | 1019.3 | ||
| 20260507052846 | 0 | 0.0 | 0.0 | 0.00 | 0.00 | 0.00 | 1019.6 | ||
| 20260507052342 | 0 | 0.0 | 0.0 | 0.00 | 0.00 | 0.00 | 1019.7 | ||
| 20260507051839 | 0 | 0.0 | 0.0 | 0.00 | 0.00 | 0.00 | 1019.9 | ||
| 20260507051337 | 0 | 0.0 | 0.0 | 0.00 | 0.00 | 0.00 | 1019.7 | ||
| 20260507050834 | 75 | 147 | 0.0 | 0.0 | 0.00 | 0.00 | 0.00 | 77 | 1019.8 |
| 20260507050330 | 75 | 147 | 0.0 | 0.0 | 0.00 | 0.00 | 0.00 | 77 | 1019.8 |
| 20260507045827 | 75 | 147 | 0.0 | 0.0 | 0.00 | 0.00 | 0.00 | 77 | 1019.8 |
| 20260507045324 | 75 | 147 | 0.0 | 0.0 | 0.00 | 0.00 | 0.00 | 77 | 1019.9 |
| 20260507044821 | 75 | 147 | 0.0 | 0.0 | 0.00 | 0.00 | 0.00 | 77 | 1019.8 |
| 20260507044318 | 75 | 147 | 0.0 | 0.0 | 0.00 | 0.00 | 0.00 | 77 | 1019.9 |
| 20260507043813 | 75 | 147 | 0.0 | 0.0 | 0.00 | 0.00 | 0.00 | 77 | 1020.0 |
| 20260507043310 | 75 | 147 | 0.0 | 0.0 | 0.00 | 0.00 | 0.00 | 77 | 1019.8 |
| 20260507042806 | 75 | 147 | 0.0 | 0.0 | 0.00 | 0.00 | 0.00 | 77 | 1019.8 |
| 20260507042306 | 75 | 147 | 0.0 | 0.0 | 0.00 | 0.00 | 0.00 | 77 | 1019.8 |
| 20260507041759 | 75 | 147 | 0.0 | 0.0 | 0.00 | 0.00 | 0.00 | 77 | 1019.8 |
| 20260507041255 | 75 | 147 | 0.0 | 0.0 | 0.00 | 0.00 | 0.00 | 77 | 1019.9 |
| 20260507040753 | 75 | 145 | 0.0 | 0.0 | 0.00 | 0.00 | 0.00 | 77 | 1019.7 |
| 20260507040249 | 75 | 145 | 0.0 | 0.0 | 0.00 | 0.00 | 0.00 | 77 | 1019.7 |
| 20260507035745 | 75 | 145 | 0.0 | 0.0 | 0.00 | 0.00 | 0.00 | 77 | 1019.7 |
| 20260507035240 | 75 | 145 | 0.0 | 0.0 | 0.00 | 0.00 | 0.00 | 77 | 1019.8 |
| 20260507034738 | 75 | 145 | 0.0 | 0.0 | 0.00 | 0.00 | 0.00 | 77 | 1019.8 |
| 20260507034235 | 75 | 145 | 0.0 | 0.0 | 0.00 | 0.00 | 0.00 | 77 | 1019.7 |
| 20260507033734 | 75 | 145 | 0.0 | 0.0 | 0.00 | 0.00 | 0.00 | 77 | 1019.8 |
| 20260507033231 | 75 | 145 | 0.0 | 0.0 | 0.00 | 0.00 | 0.00 | 77 | 1019.9 |
| 20260507032728 | 75 | 145 | 0.0 | 0.0 | 0.00 | 0.00 | 0.00 | 77 | 1019.9 |
| 20260507032224 | 0 | 0.0 | 0.0 | 0.00 | 0.00 | 0.00 | 1020.2 | ||
| 20260507031721 | 0 | 0.0 | 0.0 | 0.00 | 0.00 | 0.00 | 1020.1 | ||
| 20260507031217 | 0 | 0.0 | 0.0 | 0.00 | 0.00 | 0.00 | 1019.9 | ||
| 20260507030714 | 0 | 0.0 | 0.0 | 0.00 | 0.00 | 0.00 | 1019.9 | ||
| 20260507030212 | 75 | 143 | 0.0 | 1.0 | 0.00 | 0.00 | 0.00 | 78 | 1020.2 |
| 20260507025709 | 75 | 143 | 0.0 | 1.0 | 0.00 | 0.00 | 0.00 | 78 | 1020.3 |
| 20260507025206 | 75 | 143 | 0.0 | 1.0 | 0.00 | 0.00 | 0.00 | 78 | 1020.2 |
| 20260507024704 | 75 | 143 | 0.0 | 1.0 | 0.00 | 0.00 | 0.00 | 78 | 1020.3 |
| 20260507024201 | 75 | 143 | 0.0 | 1.0 | 0.00 | 0.00 | 0.00 | 78 | 1020.0 |
| 20260507023656 | 75 | 143 | 0.0 | 1.0 | 0.00 | 0.00 | 0.00 | 78 | 1020.2 |
| 20260507023154 | 75 | 143 | 0.0 | 1.0 | 0.00 | 0.00 | 0.00 | 78 | 1020.3 |
| 20260507022650 | 75 | 143 | 0.0 | 1.0 | 0.00 | 0.00 | 0.00 | 78 | 1020.1 |
| 20260507022146 | 75 | 143 | 0.0 | 1.0 | 0.00 | 0.00 | 0.00 | 78 | 1020.1 |
| 20260507021643 | 75 | 143 | 0.0 | 1.0 | 0.00 | 0.00 | 0.00 | 78 | 1020.1 |
| 20260507021138 | 75 | 143 | 0.0 | 1.0 | 0.00 | 0.00 | 0.00 | 78 | 1020.0 |
| 20260507020637 | 76 | 116 | 0.0 | 0.0 | 0.00 | 0.00 | 0.00 | 78 | 1020.1 |
| 20260507020132 | 76 | 116 | 0.0 | 0.0 | 0.00 | 0.00 | 0.00 | 78 | 1020.3 |
| 20260507015631 | 76 | 116 | 0.0 | 0.0 | 0.00 | 0.00 | 0.00 | 78 | 1020.0 |
| 20260507015128 | 76 | 116 | 0.0 | 0.0 | 0.00 | 0.00 | 0.00 | 78 | 1019.9 |
| 20260507014624 | 77 | 150 | 0.0 | 0.0 | 0.00 | 0.00 | 0.00 | 77 | 1020.0 |
| 20260507014120 | 77 | 150 | 0.0 | 0.0 | 0.00 | 0.00 | 0.00 | 77 | 1019.8 |
| 20260507013618 | 77 | 150 | 0.0 | 0.0 | 0.00 | 0.00 | 0.00 | 77 | 1019.8 |
| 20260507013114 | 77 | 150 | 0.0 | 0.0 | 0.00 | 0.00 | 0.00 | 77 | 1019.9 |
| 20260507012612 | 77 | 150 | 0.0 | 0.0 | 0.00 | 0.00 | 0.00 | 77 | 1020.0 |
| 20260507012107 | 77 | 150 | 0.0 | 0.0 | 0.00 | 0.00 | 0.00 | 76 | 1020.0 |
| 20260507011606 | 77 | 149 | 0.0 | 0.0 | 0.00 | 0.00 | 0.00 | 76 | 1020.0 |
| 20260507011101 | 77 | 149 | 0.0 | 0.0 | 0.00 | 0.00 | 0.00 | 76 | 1020.0 |
| 20260507010556 | 77 | 150 | 0.0 | 0.0 | 0.00 | 0.00 | 0.00 | 75 | 1020.0 |
| 20260507010052 | 78 | 154 | 0.0 | 0.0 | 0.00 | 0.00 | 0.00 | 75 | 1019.8 |
| 20260507005550 | 78 | 135 | 0.0 | 0.0 | 0.00 | 0.00 | 0.00 | 75 | 1020.0 |
| 20260507005046 | 78 | 88 | 1.0 | 3.0 | 0.00 | 0.00 | 0.00 | 75 | 1019.8 |
| 20260507004543 | 78 | 127 | 2.0 | 2.0 | 0.00 | 0.00 | 0.00 | 75 | 1019.8 |
| 20260507004041 | 78 | 127 | 1.0 | 2.0 | 0.00 | 0.00 | 0.00 | 75 | 1019.8 |
| 20260507003537 | 78 | 126 | 0.0 | 1.0 | 0.00 | 0.00 | 0.00 | 75 | 1019.7 |
| 20260507003032 | 78 | 87 | 1.0 | 2.0 | 0.00 | 0.00 | 0.00 | 75 | 1019.9 |
| 20260507002529 | 78 | 128 | 0.0 | 1.0 | 0.00 | 0.00 | 0.00 | 74 | 1019.7 |
| 20260507002024 | 78 | 94 | 1.0 | 2.0 | 0.00 | 0.00 | 0.00 | 74 | 1019.6 |
| 20260507001521 | 78 | 115 | 2.0 | 2.0 | 0.00 | 0.00 | 0.00 | 74 | 1019.7 |
| 20260507001019 | 79 | 94 | 2.0 | 2.0 | 0.00 | 0.00 | 0.00 | 73 | 1019.7 |
| 20260507000514 | 79 | 71 | 2.0 | 2.0 | 0.00 | 0.00 | 0.00 | 72 | 1019.6 |
| 20260507000010 | 79 | 132 | 1.0 | 2.0 | 0.00 | 0.00 | 0.00 | 72 | 1019.6 |
| 20260506235508 | 79 | 82 | 2.0 | 2.0 | 0.00 | 0.00 | 0.00 | 72 | 1019.7 |
| 20260506235003 | 79 | 76 | 2.0 | 3.0 | 0.00 | 0.00 | 0.00 | 71 | 1019.6 |
| 20260506234501 | 80 | 75 | 3.0 | 3.0 | 0.00 | 0.00 | 0.00 | 70 | 1019.8 |
| 20260506233958 | 80 | 114 | 1.0 | 2.0 | 0.00 | 0.00 | 0.00 | 70 | 1019.5 |
| 20260506233454 | 80 | 125 | 1.0 | 3.0 | 0.00 | 0.00 | 0.00 | 69 | 1019.9 |
| 20260506232951 | 80 | 56 | 2.0 | 3.0 | 0.00 | 0.00 | 0.00 | 69 | 1019.5 |
| 20260506232448 | 80 | 97 | 3.0 | 5.0 | 0.00 | 0.00 | 0.00 | 68 | 1019.6 |
| 20260506231943 | 81 | 86 | 5.0 | 5.0 | 0.00 | 0.00 | 0.00 | 67 | 1019.8 |
| 20260506231441 | 81 | 86 | 3.0 | 3.0 | 0.00 | 0.00 | 0.00 | 67 | 1019.7 |
| 20260506230938 | 82 | 130 | 2.0 | 6.0 | 0.00 | 0.00 | 0.00 | 67 | 1019.8 |
| 20260506230434 | 82 | 41 | 3.0 | 5.0 | 0.00 | 0.00 | 0.00 | 67 | 1019.6 |
| 20260506225931 | 82 | 104 | 3.0 | 3.0 | 0.00 | 0.00 | 0.00 | 66 | 1019.7 |
| 20260506225429 | 82 | 71 | 2.0 | 5.0 | 0.00 | 0.00 | 0.00 | 65 | 1019.7 |
| 20260506224925 | 82 | 72 | 2.0 | 2.0 | 0.00 | 0.00 | 0.00 | 67 | 1019.6 |
| 20260506224423 | 83 | 60 | 2.0 | 3.0 | 0.00 | 0.00 | 0.00 | 65 | 1019.5 |
| 20260506223919 | 83 | 44 | 2.0 | 2.0 | 0.00 | 0.00 | 0.00 | 65 | 1019.5 |
| 20260506223414 | 83 | 87 | 4.0 | 5.0 | 0.00 | 0.00 | 0.00 | 64 | 1019.5 |
| 20260506222912 | 83 | 109 | 2.0 | 3.0 | 0.00 | 0.00 | 0.00 | 65 | 1019.5 |
| 20260506222409 | 83 | 143 | 3.0 | 5.0 | 0.00 | 0.00 | 0.00 | 62 | 1019.6 |
| 20260506221906 | 83 | 108 | 1.0 | 2.0 | 0.00 | 0.00 | 0.00 | 64 | 1019.4 |
| 20260506221403 | 84 | 87 | 5.0 | 7.0 | 0.00 | 0.00 | 0.00 | 62 | 1019.4 |
| 20260506220900 | 84 | 87 | 5.0 | 7.0 | 0.00 | 0.00 | 0.00 | 62 | 1019.5 |
| 20260506220355 | 84 | 103 | 0.0 | 0.0 | 0.00 | 0.00 | 0.00 | 62 | 1019.4 |
| 20260506215852 | 84 | 97 | 2.0 | 2.0 | 0.00 | 0.00 | 0.00 | 61 | 1019.2 |
| 20260506215348 | 85 | 91 | 4.0 | 6.0 | 0.00 | 0.00 | 0.00 | 60 | 1019.3 |
| 20260506214844 | 85 | 163 | 2.0 | 2.0 | 0.00 | 0.00 | 0.00 | 60 | 1019.3 |
| 20260506214341 | 85 | 56 | 5.0 | 7.0 | 0.00 | 0.00 | 0.00 | 59 | 1019.5 |
| 20260506213839 | 85 | 65 | 5.0 | 6.0 | 0.00 | 0.00 | 0.00 | 56 | 1019.5 |
| 20260506213336 | 86 | 45 | 5.0 | 6.0 | 0.00 | 0.00 | 0.00 | 56 | 1019.6 |
| 20260506212833 | 86 | 45 | 5.0 | 6.0 | 0.00 | 0.00 | 0.00 | 56 | 1019.4 |
| 20260506212329 | 86 | 45 | 5.0 | 6.0 | 0.00 | 0.00 | 0.00 | 56 | 1019.4 |
| 20260506211824 | 86 | 106 | 1.0 | 3.0 | 0.00 | 0.00 | 0.00 | 58 | 1019.5 |
| 20260506211321 | 86 | 153 | 3.0 | 5.0 | 0.00 | 0.00 | 0.00 | 58 | 1019.4 |
| 20260506210818 | 86 | 103 | 4.0 | 5.0 | 0.00 | 0.00 | 0.00 | 57 | 1019.5 |